Location: Newark
(1.4000°N, 32.2500°E)
Time: 17:05:55
(UTC+00:00)

Hubble Space Telescope - Visible Passes

Search period start: 15 October 2019 00:00
Search period end: 25 October 2019 00:00
Orbit: 536 x 540 km, 28.5° (Epoch: 14 October)

Date Brightness Start Highest point End Pass type
(mag) Time Alt. Az. Time Alt. Az. Time Alt. Az.
15 Oct 2.5 17:25:11 10° NW 17:27:14 28° NW 17:27:14 28° NW visible
16 Oct 1.2 17:14:35 10° WNW 17:17:58 57° WNW 17:17:58 57° WNW visible
17 Oct 1.2 17:04:06 10° WNW 17:08:10 56° SSW 17:08:46 50° S visible
18 Oct 1.9 16:53:43 10° W 16:57:36 39° SSW 16:59:38 23° SSE visible
19 Oct 2.9 03:08:10 10° SSW 03:11:36 25° SSE 03:15:02 10° E visible
19 Oct 2.6 16:43:28 10° W 16:47:02 28° SSW 16:50:32 10° SSE visible
20 Oct 2.3 02:57:15 10° SW 03:01:03 35° SSE 03:04:50 10° E visible
20 Oct 3.1 16:33:23 10° WSW 16:36:30 20° SSW 16:39:37 10° SSE visible
21 Oct 1.6 02:46:29 10° SW 02:50:29 50° SSE 02:54:29 10° ENE visible
21 Oct 3.5 16:23:33 10° WSW 16:25:58 15° SSW 16:28:24 10° S visible
22 Oct 0.9 02:36:33 15° SW 02:39:55 74° SSE 02:44:02 10° ENE visible
22 Oct 3.7 16:14:20 10° SW 16:15:28 11° SSW 16:16:36 10° SSW visible
23 Oct 0.6 02:27:26 30° WSW 02:29:21 77° NNW 02:33:27 10° NE visible
24 Oct 0.9 02:18:17 49° WNW 02:18:46 52° NNW 02:22:48 10° NE visible
